Flag Weather past 2 weeks in Prague, Czech Republic

Now
36 °F

Overcast.


Feels Like: 27 °F
Forecast: 28 / 36 °F
Wind: 14 mph from Southeast

Location: Prague Ruzyne Airport

Current Time: Nov 27, 2014 at 3:47:05 PM

Latest Report: Nov 27, 2014 at 3:00 PM


Visibility: N/A

Pressure: 29.95 "Hg

Humidity: 75%

Dew point: 28 °F

Location of PragueLocation

Historic Weather in Prague — Graph

°F

Prague temperature yesterday

Maximum temperature yesterday: 37 °F (at 12:00 AM)
Minimum temperature yesterday: 28 °F (at 8:00 AM)
Average temperature yesterday: 34 °F

Past Weeks' High & Low Weather Summary

 TemperatureHumidityPressure
High54 °F (Nov 12, 2:00 PM)100% (Nov 14, 7:30 AM)30.33 "Hg (Nov 14, 7:30 AM)
Low28 °F (Nov 26, 8:00 AM)67% (Nov 16, 1:30 PM)29.53 "Hg (Nov 16, 3:00 AM)
Average42 °F89%30.02 "Hg
* Reported Nov 12 2:00 PM — Nov 27 2:30 PM, Prague, Weather by CustomWeather, © 2014

Note: Actual official high and low records may vary slightly from our data, if they occured in-between our weather recording intervals... More about our weather records

Advertising

Prague weather history for previous 24 hours

 ConditionsComfort  
Time TempWeatherWind HumidityBarometerVisibility
2:30 PM
Nov 27
36 °FOvercast.9 mph75%29.95 "HgN/A
2:00 PM36 °FOvercast.13 mph75%29.95 "HgN/A
1:30 PM36 °FOvercast.13 mph75%29.95 "HgN/A
1:00 PM36 °FOvercast.10 mph75%29.95 "HgN/A
12:30 PM36 °FOvercast.12 mph75%29.95 "HgN/A
12:00 PM36 °FOvercast.13 mph75%29.95 "HgN/A
11:30 AM36 °FOvercast.14 mph75%29.98 "HgN/A
11:00 AM36 °FOvercast.12 mph81%29.98 "HgN/A
10:30 AM36 °FOvercast.13 mph81%29.98 "HgN/A
10:00 AM36 °FOvercast.14 mph81%29.98 "HgN/A
9:30 AM36 °FOvercast.14 mph81%29.98 "HgN/A
9:00 AM36 °FOvercast.10 mph81%29.98 "HgN/A
8:30 AM36 °FOvercast.10 mph81%29.98 "HgN/A
8:00 AM36 °FOvercast.10 mph81%29.98 "HgN/A
7:30 AM36 °FOvercast.9 mph81%29.98 "HgN/A
7:00 AM36 °FOvercast.8 mph81%29.98 "HgN/A
6:30 AM36 °FOvercast.10 mph81%29.98 "HgN/A
6:00 AM34 °FOvercast.8 mph87%29.98 "Hg6 mi
5:30 AM34 °FOvercast.9 mph87%29.98 "Hg6 mi
5:00 AM34 °FOvercast.9 mph87%29.98 "Hg6 mi
4:30 AM34 °FOvercast.9 mph87%29.98 "Hg6 mi
4:00 AM34 °FOvercast.9 mph87%30.01 "Hg5 mi
3:30 AM34 °FOvercast.9 mph93%30.01 "Hg5 mi
3:00 AM34 °FOvercast.9 mph87%30.01 "Hg6 mi
2:30 AM34 °FOvercast.9 mph87%30.04 "Hg6 mi
2:00 AM34 °FOvercast.10 mph87%30.04 "Hg6 mi
1:30 AM34 °FOvercast.9 mph87%30.04 "Hg6 mi
12:30 AM34 °FOvercast.8 mph87%30.07 "Hg4 mi
12:00 AM32 °FOvercast.7 mph93%30.07 "Hg4 mi
11:30 PM
Nov 26
32 °FPassing clouds.9 mph93%30.07 "Hg4 mi
11:00 PM32 °FPassing clouds.8 mph93%30.07 "Hg4 mi
10:30 PM30 °FPassing clouds.6 mph86%30.09 "Hg4 mi
10:00 PM30 °FPassing clouds.6 mph93%30.09 "HgN/A
9:30 PM32 °FPassing clouds.6 mph87%30.09 "HgN/A
9:00 PM32 °FPassing clouds.8 mph87%30.09 "HgN/A
8:30 PM34 °FPassing clouds.10 mph87%30.09 "HgN/A
8:00 PM34 °FPassing clouds.9 mph87%30.09 "HgN/A
7:30 PM32 °FPassing clouds.8 mph87%30.09 "HgN/A
7:00 PM34 °FPassing clouds.9 mph81%30.09 "HgN/A
6:30 PM36 °FPassing clouds.12 mph75%30.09 "HgN/A
6:00 PM37 °FPassing clouds.12 mph70%30.09 "HgN/A
5:30 PM37 °FOvercast.12 mph75%30.12 "HgN/A
5:00 PM37 °FOvercast.9 mph75%30.12 "HgN/A
4:30 PM37 °FOvercast.7 mph75%30.12 "Hg6 mi
4:00 PM36 °FMore clouds than sun.6 mph87%30.12 "Hg5 mi
3:30 PM36 °FOvercast.8 mph87%30.12 "Hg4 mi
3:00 PM36 °FOvercast.9 mph87%30.12 "Hg4 mi
Weather by CustomWeather, © 2014

See weather overviewHow to use our weather pages